Home   Weather   Chennai   Past weeks
Flag for India

Past Weather in Chennai, Tamil Nadu, India — May 2015

Now
90 °F

Scattered clouds.


Feels Like: 103 °F
Forecast: 90 / 81 °F
Wind: 8 mph from Northeast

Location: Madras / Minambakkam

Current Time: Oct 15, 2019 at 3:24:23 pm

Latest Report: Oct 15, 2019 at 2:30 pm


Visibility: 4 mi

Pressure: 29.77 "Hg

Humidity: 67%

Dew Point: 77 °F

Location of ChennaiLocation

May 2015 Weather in Chennai — Graph

°F

High & Low Weather Summary for May 2015

 TemperatureHumidityPressure
High108 °F (May 24, 3:10 pm)94% (May 6, 6:10 am)29.86 "Hg (May 6, 6:10 am)
Low77 °F (May 3, 4:40 am)28% (May 25, 3:10 pm)29.53 "Hg (May 31, 4:10 pm)
Average89 °F70%29.70 "Hg
* Reported May 1 12:10 am — May 31 11:40 pm, Chennai. Weather by CustomWeather, © 2019

Note: Actual official high and low records may vary slightly from our data, if they occured in-between our weather recording intervals... More about our weather records

Advertising

Chennai Weather History for May 1, 2015

Scroll right to see more
 ConditionsComfort  
Time TempWeatherWind HumidityBarometerVisibility
12:10 am
Fri, May 1
86 °FPassing clouds.8 mph79%29.80 "Hg4 mi
12:40 am86 °FPassing clouds.10 mph79%29.80 "Hg4 mi
1:10 am86 °FPassing clouds.7 mph79%29.77 "Hg4 mi
1:40 am86 °FPassing clouds.9 mph79%29.77 "Hg4 mi
2:10 am86 °FPassing clouds.5 mph79%29.77 "Hg4 mi
2:40 am86 °FPassing clouds.6 mph79%29.74 "Hg4 mi
3:10 am84 °FPassing clouds.6 mph84%29.74 "Hg4 mi
3:40 am84 °FPassing clouds.7 mph84%29.74 "Hg4 mi
4:10 am84 °FPassing clouds.8 mph84%29.74 "Hg4 mi
4:40 am84 °FPassing clouds.6 mph84%29.74 "Hg4 mi
5:10 am84 °FPassing clouds.6 mph84%29.77 "Hg4 mi
5:40 am84 °FPassing clouds.7 mph84%29.77 "Hg4 mi
6:10 am84 °FPassing clouds.8 mph84%29.77 "Hg4 mi
6:40 am84 °FPassing clouds.7 mph84%29.77 "Hg4 mi
7:10 am84 °FPassing clouds.6 mph89%29.80 "Hg4 mi
7:40 am86 °FPassing clouds.12 mph79%29.80 "Hg4 mi
8:10 am88 °FPassing clouds.12 mph75%29.80 "Hg4 mi
8:40 am90 °FPassing clouds.10 mph71%29.83 "Hg4 mi
9:10 am90 °FPassing clouds.9 mph71%29.83 "Hg4 mi
9:40 am91 °FScattered clouds.8 mph71%29.83 "Hg5 mi
10:10 am93 °FScattered clouds.8 mph67%29.80 "Hg5 mi
10:40 am93 °FScattered clouds.9 mph63%29.80 "Hg5 mi
11:10 am95 °FScattered clouds.9 mph60%29.80 "Hg5 mi
11:40 am97 °FScattered clouds.9 mph56%29.77 "Hg5 mi
12:10 pm97 °FScattered clouds.9 mph53%29.77 "Hg5 mi
12:40 pm97 °FScattered clouds.9 mph53%29.74 "Hg5 mi
1:10 pm97 °FPassing clouds.9 mph60%29.74 "Hg5 mi
1:40 pm97 °FPassing clouds.9 mph60%29.71 "Hg5 mi
2:10 pm99 °FPassing clouds.9 mph57%29.71 "Hg5 mi
2:40 pm97 °FPassing clouds.9 mph60%29.71 "Hg5 mi
3:10 pm97 °FPassing clouds.9 mph60%29.68 "Hg5 mi
3:40 pm95 °FPassing clouds.14 mph63%29.68 "Hg5 mi
4:10 pm95 °FPassing clouds.9 mph63%29.68 "Hg5 mi
4:40 pm93 °FPassing clouds.12 mph63%29.68 "Hg4 mi
5:10 pm91 °FPassing clouds.14 mph67%29.68 "Hg4 mi
5:40 pm91 °FPassing clouds.9 mph67%29.68 "Hg4 mi
6:40 pm88 °FPassing clouds.12 mph79%29.71 "Hg4 mi
7:10 pm88 °FPassing clouds.9 mph79%29.74 "Hg4 mi
7:40 pm88 °FPassing clouds.12 mph79%29.74 "Hg4 mi
8:10 pm88 °FClear.10 mph79%29.74 "Hg4 mi
8:40 pm88 °FClear.10 mph84%29.77 "Hg4 mi
9:10 pm88 °FClear.10 mph84%29.77 "Hg4 mi
9:40 pm88 °FClear.12 mph84%29.80 "Hg4 mi
10:10 pm88 °FClear.12 mph79%29.80 "Hg4 mi
10:40 pm88 °FClear.14 mph79%29.80 "Hg4 mi
11:10 pm88 °FClear.14 mph79%29.80 "Hg4 mi
11:40 pm88 °FClear.12 mph79%29.80 "Hg4 mi
Weather by CustomWeather, © 2019

See weather overview